User: anonymous   Login
Location: Newark
(30.4994°N, 96.8283°W)
Time: 21:44:43
(UTC+00:00)
Language:

Envisat - Orbit

View from above orbital plane
View from above orbital plane
View from above satellite
View from above satellite

Ground track
Ground track

The orbit data is extracted from the following two-line orbital elements,

1 27386U 02009A   19343.50983935  .00000012  00000-0  17262-4 0  9994
2 27386  98.1413 355.5704 0001331  90.2774  80.8935 14.37965237931171
Epoch (UTC): 09 December 2019 12:14:10
Eccentricity: 0.0001331
inclination: 98.1413°
perigee height: 764 km
apogee height: 766 km
right ascension of ascending node: 355.5704°
argument of perigee: 90.2774°
revolutions per day: 14.37965237
mean anomaly at epoch: 80.8935°
orbit number at epoch: 93117

The dashed part of the orbit path shows where the satellite is in the earth's shadow,  

DLR